Regional Weather Roundup
Issued by NWS

Home | Current Version | Previous Version | Graphics & Text | Print | Product List | Glossary On
Versions: 1 2 3 4 5 6 7 8 9 10 11 12 13 14 15 16 17 18 19 20 21 22 23 24 25 26 27 28 29 30 31 32 33 34 35 36 37 38 39 40 41 42 43 44 45 46 47 48 49 50
959
ASUS43 KLSX 170857
RWRMO

WEATHER SUMMARY FOR MISSOURI
NATIONAL WEATHER SERVICE SPRINGFIELD MO
300 AM CST WED JAN 17 2018

NOTE: "FAIR" INDICATES FEW OR NO CLOUDS BELOW 12,000 FEET WITH NO
       SIGNIFICANT WEATHER AND/OR OBSTRUCTIONS TO VISIBILITY.
       CURRENT SKY AND/OR WEATHER CONDITIONS ARE NOT AVAILABLE FOR
       CHILLICOTHE AND FARMINGTON.

MOZ001>031-035>038-043-044-053-054-171000-
...NORTHERN AND WESTERN MISSOURI...

CITY           SKY/WX    TMP DP  RH WIND       PRES   REMARKS
KANSAS CTY INT CLOUDY    -1  -4  87 S6        30.66S WCI -13
LEE`S SUMMIT   CLOUDY     0  -3  87 SW6       30.67F WCI -12
ST JOSEPH        N/A    N/A N/A N/A MISG      30.68F
CHILLICOTHE      N/A     -3  -9  75 CALM      30.69S

$$
MOZ066>068-077>081-088>096-101>105-171000-
...SOUTHWEST MISSOURI...

CITY           SKY/WX    TMP DP  RH WIND       PRES   REMARKS
SPRINGFIELD    CLOUDY    -6 -10  83 W3        30.65S
JOPLIN         PTCLDY    -2  -5  87 S3        30.70F

$$
MOZ032>034-039>042-045>050-055>058-069>072-171000-
...CENTRAL MISSOURI...

CITY           SKY/WX    TMP DP  RH WIND       PRES   REMARKS
COLUMBIA       NOT AVBL
JEFFERSON CITY CLOUDY    -1  -5  82 NW3       30.72S
ROLLA          CLOUDY     1  -2  87 W5        30.65S WCI  -9
SEDALIA        PTCLDY     1  -2  87 W5        30.69S WCI  -9
WARRENSBURG    CLOUDY    -6  -9  84 CALM      30.70S

$$
MOZ051-052-059>065-171000-
...EAST CENTRAL MISSOURI...

CITY           SKY/WX    TMP DP  RH WIND       PRES   REMARKS
ST LOUIS INTL  CLEAR      5   0  79 W7        30.68S WCI  -7

$$
MOZ072>076-082>087-097>100-106>115-171000-
...SOUTH CENTRAL AND SOUTHEAST MISSOURI...

CITY           SKY/WX    TMP DP  RH WIND       PRES   REMARKS
CAPE GIRARDEAU CLOUDY    11   4  73 N9        30.70R WCI  -2
POPLAR BLUFF   FAIR     N/A N/A N/A NW6       30.71R

$$



USA.gov is the U.S. government's official web portal to all federal, state and local government web resources and services.